Precipitable_Water
0.87 0.92 0.97 1.02 1.04 1.04 1.06 1.08 1.10 1.10 1.08 1.05 1.07 1.10 1.11 1.10 1.06 1.01 0.95 0.92 0.91 0.92 0.98 1.02 1.03 1.07 1.09 1.12 1.16 1.19 1.20 1.20 1.20 1.15 1.12 1.10 1.11 1.11 1.10 1.11 1.10 1.11 1.14 1.13 1.17 1.23 1.30 1.40 1.45 1.48 1.49 1.49 1.51 1.52 1.52 1.52 1.49 1.48 1.44 1.37 1.29 1.25 1.23
0.78 0.85 0.91 0.98 1.01 1.03 1.06 1.09 1.12 1.13 1.13 1.11 1.09 1.10 1.15 1.17 1.19 1.17 1.10 1.03 0.97 0.94 0.97 1.02 1.05 1.06 1.07 1.08 1.13 1.16 1.18 1.18 1.19 1.19 1.18 1.16 1.17 1.16 1.15 1.14 1.12 1.10 1.12 1.15 1.19 1.27 1.33 1.37 1.45 1.49 1.48 1.50 1.51 1.55 1.53 1.50 1.46 1.44 1.39 1.32 1.23 1.20 1.24
0.72 0.78 0.84 0.91 0.96 0.99 1.03 1.07 1.12 1.15 1.16 1.17 1.16 1.13 1.13 1.16 1.22 1.22 1.23 1.22 1.17 1.10 1.09 1.09 1.10 1.09 1.11 1.12 1.12 1.13 1.16 1.19 1.20 1.19 1.17 1.13 1.12 1.13 1.16 1.16 1.15 1.13 1.14 1.19 1.22 1.24 1.32 1.36 1.45 1.51 1.50 1.50 1.52 1.55 1.54 1.49 1.43 1.40 1.36 1.30 1.22 1.17 1.19
0.69 0.73 0.77 0.83 0.89 0.97 1.02 1.05 1.08 1.13 1.18 1.20 1.20 1.18 1.16 1.17 1.23 1.28 1.29 1.29 1.29 1.29 1.22 1.17 1.16 1.15 1.16 1.17 1.17 1.18 1.19 1.20 1.21 1.19 1.18 1.18 1.16 1.18 1.17 1.16 1.16 1.18 1.17 1.17 1.21 1.25 1.29 1.36 1.42 1.48 1.51 1.50 1.52 1.56 1.55 1.49 1.42 1.37 1.33 1.28 1.23 1.19 1.20
0.64 0.70 0.74 0.79 0.86 0.93 0.99 1.05 1.08 1.11 1.15 1.21 1.25 1.26 1.23 1.22 1.26 1.30 1.33 1.36 1.36 1.33 1.31 1.29 1.27 1.22 1.20 1.21 1.20 1.21 1.20 1.20 1.22 1.23 1.23 1.23 1.23 1.23 1.19 1.14 1.14 1.13 1.14 1.20 1.26 1.26 1.27 1.32 1.38 1.44 1.47 1.50 1.52 1.55 1.53 1.51 1.43 1.37 1.32 1.29 1.23 1.21 1.20
0.55 0.60 0.64 0.70 0.78 0.86 0.93 1.00 1.06 1.09 1.13 1.17 1.23 1.27 1.28 1.28 1.30 1.31 1.34 1.37 1.38 1.39 1.41 1.43 1.41 1.40 1.33 1.29 1.25 1.25 1.28 1.28 1.29 1.29 1.28 1.27 1.25 1.22 1.18 1.16 1.14 1.14 1.15 1.18 1.25 1.26 1.29 1.31 1.34 1.40 1.43 1.47 1.50 1.53 1.53 1.50 1.45 1.39 1.33 1.30 1.26 1.23 1.20
0.52 0.54 0.58 0.66 0.73 0.80 0.86 0.94 1.02 1.09 1.14 1.18 1.23 1.27 1.29 1.29 1.29 1.29 1.33 1.36 1.40 1.39 1.40 1.39 1.39 1.40 1.40 1.43 1.41 1.38 1.33 1.32 1.33 1.32 1.34 1.32 1.30 1.24 1.21 1.21 1.19 1.17 1.18 1.23 1.23 1.28 1.29 1.29 1.30 1.35 1.42 1.46 1.49 1.50 1.48 1.47 1.43 1.41 1.36 1.31 1.28 1.28 1.24
0.51 0.52 0.55 0.62 0.69 0.76 0.81 0.88 0.97 1.06 1.14 1.19 1.22 1.24 1.27 1.30 1.30 1.31 1.33 1.36 1.39 1.42 1.42 1.38 1.37 1.37 1.39 1.44 1.45 1.43 1.42 1.42 1.43 1.42 1.39 1.33 1.30 1.24 1.22 1.21 1.19 1.19 1.21 1.19 1.24 1.28 1.28 1.28 1.29 1.32 1.40 1.45 1.47 1.48 1.46 1.47 1.45 1.41 1.35 1.29 1.30 1.30 1.30
0.50 0.50 0.51 0.59 0.66 0.72 0.79 0.85 0.93 1.01 1.09 1.14 1.18 1.21 1.24 1.26 1.27 1.28 1.30 1.34 1.38 1.39 1.38 1.39 1.36 1.38 1.42 1.43 1.43 1.42 1.45 1.47 1.45 1.44 1.41 1.35 1.30 1.25 1.23 1.22 1.22 1.23 1.18 1.19 1.23 1.28 1.29 1.30 1.28 1.28 1.35 1.42 1.45 1.45 1.44 1.46 1.45 1.42 1.35 1.30 1.31 1.31 1.30
0.47 0.49 0.53 0.60 0.66 0.72 0.78 0.84 0.91 0.99 1.05 1.12 1.17 1.20 1.23 1.25 1.26 1.28 1.30 1.33 1.37 1.36 1.36 1.39 1.39 1.41 1.42 1.42 1.43 1.47 1.49 1.47 1.47 1.44 1.41 1.35 1.33 1.26 1.25 1.25 1.24 1.23 1.20 1.21 1.25 1.25 1.29 1.32 1.30 1.28 1.31 1.35 1.41 1.41 1.41 1.44 1.44 1.41 1.35 1.31 1.32 1.33 1.33
0.49 0.52 0.56 0.61 0.63 0.66 0.71 0.79 0.85 0.93 1.00 1.06 1.12 1.17 1.20 1.23 1.24 1.26 1.27 1.32 1.34 1.35 1.38 1.41 1.43 1.41 1.40 1.41 1.42 1.45 1.46 1.46 1.48 1.43 1.42 1.40 1.37 1.32 1.29 1.27 1.25 1.23 1.20 1.23 1.24 1.28 1.29 1.30 1.32 1.29 1.30 1.30 1.33 1.35 1.38 1.41 1.42 1.39 1.35 1.34 1.35 1.34 1.36
0.47 0.49 0.52 0.57 0.61 0.65 0.67 0.72 0.79 0.86 0.95 1.03 1.09 1.14 1.18 1.21 1.22 1.24 1.27 1.30 1.33 1.34 1.39 1.42 1.44 1.42 1.41 1.42 1.41 1.42 1.42 1.44 1.45 1.43 1.42 1.42 1.41 1.37 1.32 1.28 1.24 1.21 1.22 1.23 1.24 1.28 1.28 1.27 1.28 1.27 1.26 1.29 1.30 1.31 1.35 1.40 1.40 1.39 1.37 1.35 1.36 1.36 1.38
0.45 0.46 0.47 0.50 0.53 0.57 0.63 0.70 0.77 0.82 0.89 0.97 1.04 1.11 1.16 1.20 1.22 1.22 1.25 1.28 1.34 1.38 1.40 1.41 1.43 1.43 1.42 1.42 1.41 1.39 1.39 1.41 1.42 1.45 1.47 1.46 1.44 1.42 1.35 1.27 1.22 1.19 1.17 1.23 1.26 1.26 1.24 1.26 1.26 1.27 1.26 1.28 1.30 1.28 1.32 1.35 1.38 1.37 1.38 1.39 1.39 1.39 1.38
0.40 0.42 0.44 0.50 0.54 0.57 0.60 0.65 0.73 0.80 0.85 0.91 0.98 1.06 1.12 1.17 1.20 1.22 1.25 1.27 1.32 1.37 1.38 1.40 1.41 1.41 1.41 1.41 1.41 1.39 1.37 1.39 1.44 1.48 1.50 1.51 1.49 1.45 1.38 1.29 1.21 1.17 1.19 1.22 1.22 1.23 1.23 1.22 1.23 1.24 1.26 1.27 1.29 1.30 1.32 1.33 1.33 1.35 1.37 1.40 1.41 1.40 1.38
0.32 0.34 0.36 0.42 0.48 0.53 0.58 0.64 0.69 0.74 0.82 0.88 0.94 0.98 1.02 1.07 1.12 1.17 1.22 1.26 1.30 1.34 1.34 1.36 1.37 1.37 1.38 1.39 1.37 1.37 1.39 1.43 1.48 1.52 1.54 1.54 1.51 1.47 1.42 1.34 1.24 1.20 1.19 1.18 1.19 1.23 1.25 1.25 1.24 1.22 1.23 1.27 1.29 1.30 1.32 1.29 1.29 1.32 1.34 1.37 1.39 1.40 1.37
0.30 0.33 0.37 0.41 0.45 0.50 0.55 0.59 0.63 0.69 0.76 0.84 0.91 0.93 0.96 1.00 1.05 1.09 1.12 1.16 1.22 1.25 1.29 1.34 1.32 1.32 1.34 1.34 1.34 1.37 1.42 1.45 1.49 1.51 1.54 1.53 1.50 1.48 1.45 1.40 1.31 1.22 1.18 1.17 1.18 1.20 1.22 1.21 1.22 1.22 1.21 1.22 1.25 1.29 1.29 1.27 1.28 1.30 1.33 1.37 1.36 1.36 1.36
0.32 0.35 0.38 0.40 0.44 0.51 0.56 0.61 0.64 0.69 0.74 0.81 0.87 0.90 0.93 0.96 1.00 1.04 1.07 1.11 1.16 1.20 1.26 1.30 1.28 1.31 1.31 1.29 1.33 1.39 1.43 1.45 1.46 1.50 1.50 1.52 1.54 1.54 1.50 1.45 1.39 1.27 1.17 1.13 1.14 1.13 1.15 1.16 1.15 1.17 1.21 1.22 1.22 1.23 1.25 1.24 1.24 1.26 1.31 1.34 1.36 1.36 1.36
0.34 0.35 0.35 0.35 0.39 0.46 0.52 0.59 0.66 0.71 0.72 0.76 0.82 0.86 0.91 0.94 0.98 1.03 1.05 1.11 1.15 1.18 1.26 1.29 1.29 1.28 1.28 1.28 1.34 1.40 1.41 1.42 1.45 1.47 1.49 1.54 1.54 1.56 1.57 1.53 1.44 1.31 1.20 1.12 1.08 1.09 1.12 1.09 1.08 1.14 1.20 1.21 1.22 1.21 1.22 1.21 1.22 1.25 1.29 1.32 1.34 1.36 1.36
0.29 0.35 0.35 0.37 0.39 0.43 0.49 0.57 0.66 0.72 0.75 0.77 0.82 0.88 0.93 0.97 1.00 1.01 1.06 1.09 1.14 1.23 1.26 1.25 1.26 1.27 1.28 1.31 1.35 1.38 1.41 1.44 1.45 1.46 1.49 1.51 1.56 1.60 1.61 1.57 1.49 1.38 1.26 1.13 1.09 1.09 1.06 1.03 1.05 1.09 1.15 1.17 1.16 1.17 1.22 1.20 1.21 1.24 1.28 1.31 1.33 1.35 1.37
0.31 0.34 0.37 0.39 0.41 0.43 0.48 0.57 0.63 0.70 0.76 0.78 0.82 0.86 0.92 0.99 1.00 1.03 1.09 1.13 1.20 1.23 1.25 1.24 1.25 1.26 1.27 1.31 1.34 1.36 1.40 1.42 1.43 1.44 1.47 1.54 1.58 1.60 1.59 1.58 1.51 1.46 1.38 1.26 1.16 1.09 1.07 1.06 1.04 1.06 1.09 1.11 1.12 1.16 1.21 1.19 1.20 1.23 1.27 1.30 1.32 1.34 1.36
0.34 0.36 0.39 0.40 0.42 0.44 0.49 0.56 0.60 0.63 0.71 0.78 0.81 0.86 0.92 0.97 1.02 1.09 1.16 1.20 1.21 1.21 1.21 1.23 1.23 1.24 1.27 1.29 1.32 1.36 1.38 1.40 1.42 1.43 1.49 1.54 1.57 1.59 1.57 1.56 1.55 1.51 1.45 1.36 1.23 1.13 1.08 1.06 1.04 1.05 1.07 1.10 1.14 1.17 1.19 1.19 1.21 1.23 1.26 1.29 1.31 1.33 1.35
0.39 0.42 0.40 0.42 0.43 0.46 0.50 0.53 0.57 0.62 0.69 0.80 0.88 0.91 0.93 0.95 1.02 1.06 1.09 1.17 1.17 1.19 1.21 1.23 1.24 1.25 1.30 1.31 1.33 1.34 1.36 1.38 1.41 1.46 1.52 1.55 1.58 1.57 1.56 1.57 1.56 1.52 1.51 1.44 1.35 1.27 1.21 1.18 1.15 1.09 1.09 1.13 1.16 1.16 1.15 1.19 1.23 1.24 1.27 1.29 1.31 1.33 1.36
0.50 0.50 0.53 0.54 0.53 0.51 0.60 0.67 0.67 0.67 0.76 0.84 0.90 0.94 0.96 1.02 1.06 1.06 1.09 1.12 1.16 1.19 1.21 1.24 1.24 1.27 1.31 1.31 1.32 1.34 1.37 1.40 1.42 1.47 1.52 1.56 1.58 1.58 1.59 1.58 1.57 1.59 1.60 1.49 1.40 1.31 1.24 1.18 1.16 1.15 1.14 1.14 1.16 1.14 1.13 1.18 1.23 1.25 1.27 1.29 1.31 1.34 1.38
0.61 0.62 0.62 0.63 0.64 0.62 0.70 0.79 0.77 0.74 0.76 0.83 0.88 0.94 0.98 1.01 1.04 1.08 1.09 1.11 1.16 1.20 1.22 1.23 1.23 1.28 1.30 1.27 1.30 1.33 1.38 1.42 1.44 1.45 1.48 1.52 1.51 1.53 1.58 1.64 1.65 1.62 1.63 1.53 1.45 1.37 1.31 1.27 1.23 1.22 1.21 1.16 1.13 1.13 1.13 1.17 1.24 1.25 1.26 1.28 1.32 1.36 1.39
0.66 0.68 0.70 0.71 0.68 0.65 0.76 0.85 0.84 0.80 0.79 0.79 0.80 0.89 0.96 0.98 1.00 1.01 1.02 1.08 1.13 1.17 1.17 1.17 1.19 1.24 1.21 1.20 1.25 1.31 1.38 1.41 1.42 1.43 1.44 1.44 1.44 1.49 1.54 1.59 1.61 1.65 1.69 1.63 1.57 1.48 1.44 1.38 1.30 1.26 1.25 1.21 1.16 1.17 1.17 1.20 1.25 1.27 1.27 1.29 1.33 1.40 1.45
0.70 0.72 0.75 0.77 0.78 0.80 0.88 0.93 0.86 0.79 0.76 0.76 0.81 0.90 0.96 1.00 1.02 1.02 1.03 1.07 1.13 1.14 1.13 1.15 1.17 1.15 1.11 1.19 1.27 1.32 1.37 1.41 1.41 1.40 1.39 1.40 1.48 1.56 1.59 1.66 1.72 1.73 1.70 1.68 1.64 1.56 1.52 1.45 1.37 1.29 1.25 1.25 1.23 1.21 1.20 1.21 1.25 1.27 1.28 1.30 1.35 1.43 1.48
0.78 0.80 0.78 0.80 0.81 0.90 0.91 0.90 0.83 0.77 0.78 0.82 0.85 0.92 0.97 0.99 0.98 1.00 1.03 1.06 1.06 1.03 1.07 1.13 1.15 1.14 1.17 1.24 1.27 1.30 1.32 1.36 1.39 1.37 1.38 1.37 1.37 1.45 1.55 1.65 1.67 1.72 1.74 1.71 1.72 1.67 1.59 1.50 1.43 1.35 1.31 1.31 1.29 1.25 1.24 1.25 1.25 1.25 1.27 1.30 1.36 1.44 1.50
0.82 0.83 0.88 0.92 0.97 0.98 0.96 0.92 0.84 0.78 0.81 0.88 0.92 0.93 0.98 0.99 0.96 0.99 1.04 1.04 1.01 1.02 1.10 1.17 1.18 1.21 1.24 1.26 1.29 1.34 1.38 1.38 1.40 1.41 1.36 1.38 1.41 1.42 1.44 1.55 1.66 1.73 1.75 1.77 1.73 1.68 1.62 1.58 1.50 1.40 1.34 1.34 1.33 1.30 1.28 1.29 1.29 1.25 1.26 1.31 1.38 1.46 1.55
0.79 0.75 0.76 0.79 0.81 0.91 0.93 0.88 0.84 0.83 0.84 0.89 0.93 0.98 1.01 1.01 0.98 1.00 1.03 1.01 1.01 1.10 1.16 1.19 1.23 1.27 1.28 1.28 1.29 1.31 1.34 1.38 1.40 1.42 1.44 1.44 1.45 1.43 1.41 1.47 1.56 1.64 1.72 1.75 1.74 1.68 1.64 1.62 1.57 1.48 1.40 1.37 1.35 1.34 1.33 1.32 1.33 1.30 1.30 1.35 1.42 1.49 1.58
0.82 0.81 0.80 0.83 0.83 0.85 0.87 0.84 0.88 0.91 0.97 1.00 1.02 1.03 1.07 1.04 1.00 1.01 1.01 1.02 1.19 1.25 1.25 1.25 1.27 1.30 1.29 1.29 1.29 1.32 1.34 1.37 1.41 1.46 1.47 1.44 1.47 1.49 1.50 1.49 1.47 1.49 1.58 1.64 1.67 1.67 1.63 1.63 1.62 1.56 1.47 1.37 1.33 1.33 1.34 1.36 1.38 1.38 1.39 1.42 1.48 1.55 1.64
0.84 0.82 0.82 0.81 0.84 0.89 0.89 0.86 0.86 0.91 0.96 1.03 1.06 1.07 1.09 1.15 1.09 1.07 1.03 1.15 1.21 1.19 1.21 1.23 1.25 1.25 1.26 1.28 1.32 1.34 1.37 1.41 1.44 1.45 1.47 1.50 1.50 1.47 1.48 1.49 1.53 1.50 1.50 1.52 1.55 1.57 1.55 1.55 1.58 1.55 1.50 1.42 1.34 1.31 1.35 1.42 1.46 1.45 1.48 1.53 1.58 1.65 1.74
0.84 0.86 0.86 0.87 0.87 0.91 0.91 0.93 0.93 0.92 0.91 0.97 1.05 1.08 1.13 1.15 1.17 1.08 1.13 1.22 1.26 1.28 1.25 1.24 1.23 1.22 1.23 1.28 1.33 1.37 1.41 1.43 1.45 1.48 1.51 1.54 1.59 1.57 1.53 1.49 1.51 1.53 1.56 1.58 1.47 1.42 1.37 1.41 1.48 1.50 1.52 1.49 1.39 1.32 1.37 1.45 1.48 1.51 1.59 1.65 1.71 1.79 1.83
0.78 0.77 0.75 0.74 0.82 0.87 0.87 0.88 0.87 0.89 0.90 0.90 1.00 1.04 1.07 1.10 1.14 1.19 1.24 1.25 1.27 1.27 1.28 1.26 1.21 1.20 1.22 1.24 1.29 1.34 1.39 1.37 1.37 1.41 1.47 1.51 1.54 1.57 1.59 1.60 1.57 1.52 1.49 1.53 1.56 1.57 1.56 1.51 1.45 1.44 1.47 1.46 1.43 1.39 1.40 1.44 1.48 1.57 1.65 1.73 1.79 1.85 1.88
0.83 0.83 0.84 0.87 0.87 0.86 0.83 0.81 0.81 0.84 0.86 0.89 0.97 1.01 1.03 1.04 1.06 1.11 1.15 1.18 1.22 1.23 1.23 1.22 1.22 1.19 1.19 1.21 1.25 1.27 1.29 1.28 1.29 1.32 1.35 1.42 1.48 1.49 1.54 1.59 1.61 1.54 1.48 1.45 1.44 1.47 1.54 1.59 1.56 1.50 1.47 1.47 1.50 1.47 1.45 1.47 1.55 1.62 1.66 1.75 1.81 1.83 1.87
0.90 0.90 0.91 0.90 0.92 0.93 0.88 0.88 0.86 0.86 0.86 0.87 0.95 0.98 0.99 1.00 1.03 1.07 1.08 1.11 1.14 1.16 1.15 1.17 1.20 1.23 1.23 1.25 1.22 1.20 1.25 1.25 1.26 1.28 1.30 1.35 1.43 1.49 1.52 1.52 1.56 1.60 1.62 1.63 1.60 1.55 1.49 1.52 1.64 1.77 1.83 1.81 1.74 1.59 1.53 1.61 1.64 1.69 1.80 1.86 1.87 1.86 1.80
0.96 0.95 0.95 0.97 0.98 0.97 0.96 0.97 0.96 0.94 0.94 0.95 0.98 0.98 0.98 0.99 1.01 1.05 1.08 1.11 1.13 1.14 1.10 1.11 1.13 1.16 1.20 1.25 1.26 1.27 1.28 1.27 1.28 1.32 1.35 1.37 1.38 1.42 1.48 1.60 1.60 1.57 1.52 1.52 1.64 1.68 1.67 1.66 1.60 1.62 1.72 1.92 1.92 1.95 1.82 1.72 1.79 1.88 1.87 1.89 1.93 1.95 1.93
1.01 0.99 0.99 1.01 0.98 0.98 0.98 0.99 1.01 1.01 0.99 1.00 1.02 1.01 1.02 1.02 1.05 1.07 1.10 1.12 1.14 1.13 1.11 1.12 1.10 1.11 1.14 1.19 1.21 1.25 1.29 1.31 1.32 1.35 1.37 1.39 1.42 1.45 1.47 1.51 1.60 1.66 1.66 1.66 1.64 1.63 1.64 1.67 1.71 1.70 1.66 1.66 1.72 1.77 1.88 1.88 1.88 1.82 1.86 1.92 1.92 1.92 1.93
1.10 1.09 1.10 1.10 1.07 1.06 1.06 1.05 1.05 1.03 1.03 1.08 1.09 1.08 1.09 1.09 1.11 1.13 1.15 1.16 1.15 1.15 1.12 1.11 1.08 1.05 1.08 1.11 1.15 1.19 1.22 1.24 1.25 1.27 1.31 1.36 1.41 1.44 1.44 1.43 1.43 1.52 1.65 1.71 1.73 1.71 1.68 1.67 1.68 1.72 1.83 2.02 2.02 1.87 1.73 1.69 1.74 1.80 1.85 1.89 1.88 1.92 1.89
Wind_Speed
21 23 24 23 23 23 24 25 25 25 25 25 25 25 24 24 24 24 25 26 26 26 26 26 26 26 26 26 25 25 25 24 24 23 23 22 22 21 21 20 19 19 19 18 18 18 17 16 16 15 15 15 14 13 12 11 10 8 8 7 6 6 5
19 21 23 24 24 24 25 26 26 26 26 26 26 26 26 25 25 25 25 25 26 26 26 27 27 27 27 27 26 26 26 26 25 24 24 23 23 22 22 21 20 20 19 19 19 18 18 17 17 16 16 16 15 14 13 12 11 10 9 8 7 7 6
19 20 21 23 24 25 25 25 26 27 28 27 27 27 27 27 26 26 26 25 26 26 26 26 26 27 27 27 27 27 27 27 26 26 25 25 24 24 23 22 22 21 20 20 19 19 19 18 18 17 17 17 16 15 14 13 12 11 10 9 8 8 7
20 21 21 22 23 25 25 25 26 28 29 29 29 29 28 28 27 27 27 26 26 26 25 25 25 26 26 26 26 27 27 27 27 27 26 26 26 25 24 24 23 22 21 20 20 20 20 19 19 18 18 18 17 16 15 14 13 12 11 10 9 9 8
21 22 22 22 23 23 24 25 26 28 29 30 29 29 29 29 28 27 27 27 27 27 26 25 24 24 25 25 25 26 27 27 27 27 27 27 27 26 26 25 24 23 22 21 21 21 21 20 20 19 19 19 18 17 16 15 14 13 12 11 10 10 9
22 22 22 22 22 23 24 25 26 28 30 30 30 30 30 29 28 28 28 27 27 27 26 26 25 24 24 24 24 25 26 27 27 27 28 27 27 27 27 26 25 24 23 22 22 22 22 21 21 20 20 20 19 19 17 16 15 14 13 12 12 11 10
23 23 23 23 22 23 24 24 26 27 30 30 30 30 29 29 29 29 28 28 28 27 27 26 26 25 24 24 24 24 25 25 26 27 27 28 28 28 28 27 26 25 24 23 23 23 23 23 22 21 21 21 20 20 19 18 17 16 14 14 13 12 12
26 24 23 24 23 23 23 23 25 26 28 30 30 30 29 29 29 29 29 28 28 28 27 27 26 25 25 24 23 24 24 24 25 25 26 27 27 28 28 28 27 26 25 24 23 23 23 23 23 22 22 22 21 21 20 19 18 17 16 15 14 14 13
26 25 24 24 23 22 22 22 24 25 27 29 30 30 30 30 29 29 29 29 29 28 28 27 27 26 25 24 24 24 23 23 24 24 25 26 27 28 28 28 27 26 26 25 24 24 24 24 24 24 23 22 22 22 21 20 19 18 17 17 16 15 15
24 24 24 24 23 22 22 22 23 25 26 28 29 30 30 30 30 30 30 29 29 29 29 28 28 27 26 25 25 24 24 24 24 24 25 25 26 27 28 28 28 27 26 25 25 24 25 25 25 25 24 24 23 23 22 21 20 19 19 18 17 17 16
23 23 23 23 23 23 22 22 23 25 26 27 28 29 29 30 30 30 30 30 30 30 30 29 28 28 27 26 26 25 25 25 24 24 25 24 25 26 27 28 28 27 27 26 26 25 25 26 26 26 25 25 24 24 23 22 21 20 20 19 18 18 17
22 22 22 23 23 23 23 23 24 25 26 27 28 29 29 30 31 31 31 30 30 30 30 30 29 28 28 28 27 26 26 26 25 25 25 25 24 25 26 28 28 28 27 27 26 26 26 27 27 27 26 26 25 25 24 23 22 21 21 20 19 19 18
20 21 22 22 23 23 23 24 24 26 27 27 28 29 29 30 30 31 31 31 31 31 30 30 30 29 29 28 28 28 27 27 26 25 25 25 24 24 25 26 28 28 27 27 27 27 27 27 28 28 27 27 26 26 25 24 23 22 21 21 20 20 19
19 21 21 21 22 23 23 24 25 26 27 28 28 29 29 30 30 31 31 31 31 31 31 30 30 30 29 29 29 29 28 28 27 26 25 25 25 24 24 25 27 27 27 27 28 28 28 28 28 28 28 27 27 26 26 25 24 23 22 22 21 20 20
19 20 21 22 22 23 23 24 24 25 27 27 28 28 29 30 30 30 30 31 31 31 31 30 30 30 30 29 30 30 29 28 28 27 26 26 25 25 25 25 26 27 27 27 28 28 28 29 29 29 29 28 28 27 27 26 25 24 23 23 22 21 21
20 20 21 21 22 23 24 24 24 25 26 27 27 28 29 29 29 30 30 30 30 30 30 30 30 30 30 30 30 30 30 29 29 28 28 27 26 26 25 25 25 26 27 28 28 29 29 29 29 30 29 29 28 28 27 27 26 25 25 24 23 22 22
20 20 20 20 21 22 23 23 24 24 25 26 27 28 29 29 29 30 30 30 30 30 30 30 31 31 30 31 30 30 30 30 30 30 29 28 27 26 26 26 25 26 27 28 28 29 29 29 30 30 30 30 29 28 28 28 27 27 26 25 24 23 23
20 20 20 19 20 21 22 23 24 24 24 25 26 28 29 29 30 30 30 30 30 30 30 30 31 31 31 31 30 30 30 30 30 31 30 30 28 27 27 26 26 26 26 28 29 29 30 30 30 30 31 30 30 30 29 29 29 28 27 26 26 25 24
21 21 20 20 20 20 21 22 23 24 25 24 25 26 28 29 29 30 31 31 31 30 30 31 31 31 31 31 30 30 30 30 30 31 31 31 30 29 28 27 27 26 26 27 28 29 30 30 31 31 31 31 31 31 30 30 30 29 28 27 27 26 25
23 22 21 20 20 21 22 21 21 22 24 24 25 26 27 28 29 30 31 31 31 30 31 31 31 31 31 30 30 31 31 30 31 31 31 31 31 30 30 29 28 28 27 27 28 29 30 31 31 31 32 32 32 32 31 31 31 30 29 28 27 27 27
24 23 22 21 21 22 22 22 22 22 23 24 26 26 26 26 27 28 29 30 31 31 31 31 32 31 31 30 30 30 30 31 31 31 31 32 32 32 32 31 30 29 29 28 28 29 29 30 31 32 32 33 33 32 32 32 31 31 30 29 28 28 28
24 24 24 23 22 22 22 23 23 22 23 24 25 25 26 26 26 27 28 29 30 30 31 31 31 31 31 30 30 30 31 31 31 31 31 31 32 33 33 33 32 31 30 30 29 29 29 30 31 32 33 33 33 33 33 33 32 32 31 30 29 29 28
24 24 24 23 23 22 21 22 24 24 23 23 24 25 25 25 25 26 27 28 28 29 30 31 31 31 31 31 31 30 30 30 30 30 31 31 33 33 34 34 34 33 32 31 31 31 30 30 31 32 33 34 34 34 34 33 33 32 32 31 31 30 29
22 22 22 23 22 21 20 21 23 24 24 24 24 24 25 25 26 26 26 27 27 28 29 31 32 32 32 31 31 30 29 29 29 30 30 31 33 34 35 35 36 35 34 33 33 32 31 31 31 32 33 34 35 35 35 34 33 33 33 32 32 31 30
21 20 21 21 21 20 20 20 22 22 23 23 24 24 24 25 26 27 28 28 28 29 30 31 32 32 32 31 30 30 29 29 30 30 31 31 32 33 34 35 36 37 36 35 34 34 33 32 32 33 33 34 35 36 35 35 34 34 34 33 33 32 30
20 20 20 19 20 20 19 19 20 20 20 21 22 23 24 24 25 27 28 28 28 29 30 31 31 31 30 30 30 30 30 31 31 31 32 32 32 32 33 34 35 36 38 38 36 35 34 34 34 34 34 35 36 36 36 36 35 34 35 34 33 32 31
19 19 19 19 19 19 18 18 18 18 19 19 20 22 23 24 25 26 27 28 29 29 30 30 30 30 30 30 30 31 31 32 32 32 32 32 32 32 32 33 34 36 37 39 38 37 36 36 35 35 35 36 37 37 38 37 36 35 36 35 34 33 32
19 19 19 19 18 18 18 18 17 18 18 19 19 21 23 24 24 25 26 27 29 29 29 29 29 29 30 30 31 31 32 33 33 33 33 33 33 32 32 32 33 35 37 38 39 39 38 38 37 36 36 37 38 38 38 38 38 37 36 36 35 34 33
19 19 19 19 18 18 18 19 18 18 19 19 19 20 22 23 24 25 25 27 28 28 29 29 30 30 31 32 32 32 33 33 34 34 34 33 33 34 33 32 32 33 35 37 39 40 40 39 38 38 38 38 38 39 39 38 38 38 37 37 36 35 34
20 20 20 19 19 19 19 19 20 19 19 19 19 20 21 22 23 24 25 26 26 27 29 30 31 32 32 33 34 34 34 34 34 35 35 35 35 35 36 35 35 34 34 35 37 38 40 40 40 40 39 39 39 39 39 39 39 39 39 38 37 36 34
20 20 20 20 19 19 19 19 19 19 19 19 19 20 20 21 22 23 24 25 26 27 29 30 31 32 33 34 35 35 36 36 36 37 37 37 37 37 38 38 38 37 37 36 36 37 38 40 41 41 41 40 40 40 40 40 40 40 39 39 38 36 35
20 20 20 20 19 19 19 19 19 19 19 19 19 20 20 21 22 23 24 25 26 27 29 30 32 33 34 35 36 36 37 37 37 38 39 39 40 40 40 40 40 40 40 40 40 40 39 39 40 41 42 42 42 42 42 42 42 41 40 39 38 37 35
20 20 20 19 19 19 19 19 19 19 19 19 20 20 20 21 22 23 24 25 25 26 28 29 31 32 33 34 34 35 36 37 37 38 39 40 41 42 42 42 42 43 43 42 42 43 42 42 41 42 43 44 44 43 43 43 43 42 41 40 38 36 34
20 20 19 19 19 19 19 20 20 20 20 20 21 21 21 22 22 22 23 24 25 25 26 27 29 30 31 32 33 34 35 37 38 39 40 41 42 43 43 44 44 45 45 45 44 44 44 44 44 44 44 45 45 45 44 44 43 43 42 41 39 37 35
21 20 20 19 19 19 19 20 20 20 21 21 22 22 22 22 23 23 23 24 25 25 26 27 28 29 30 31 32 34 35 37 38 40 41 42 43 44 45 46 46 47 47 48 48 48 48 47 46 45 44 44 44 44 44 43 44 43 42 42 41 40 37
22 21 20 20 19 19 20 20 20 20 21 21 22 22 22 23 23 24 24 25 26 27 27 28 28 29 30 31 31 33 34 36 37 39 40 42 43 45 46 47 48 48 49 50 50 51 51 50 49 48 47 45 44 43 43 42 41 42 42 43 43 41 39
22 21 20 20 20 20 20 20 21 21 21 21 21 22 22 23 23 24 25 26 27 27 28 29 30 30 30 31 31 32 33 35 36 37 39 40 42 43 45 47 49 50 51 51 52 52 52 52 51 51 49 48 46 45 43 41 40 40 41 43 43 42 39
20 20 20 20 20 20 20 21 20 21 21 22 22 22 23 23 24 24 25 26 26 27 28 29 30 30 31 32 32 33 34 35 36 37 39 40 41 43 45 47 49 51 52 52 53 54 54 54 53 52 50 49 47 45 44 42 41 40 40 40 39 39 38
Wind_Direction
220 221 221 221 221 221 220 219 218 218 218 218 218 219 219 219 219 220 222 223 223 224 225 225 226 226 227 227 227 227 227 228 229 230 232 233 234 235 235 235 236 236 235 235 235 236 236 236 235 233 230 229 231 231 231 232 233 235 238 244 249 254 261
220 222 222 221 222 222 222 222 221 220 220 220 221 221 221 221 222 222 223 224 225 226 227 227 227 228 228 229 229 229 229 229 230 231 233 234 235 236 236 236 237 237 236 235 235 235 236 236 236 233 230 230 231 231 230 230 232 234 238 243 248 254 261
220 221 221 221 222 222 222 222 223 223 222 222 222 222 222 223 223 224 224 225 227 228 228 228 228 229 230 230 231 231 231 231 231 231 232 234 235 236 237 237 238 238 238 236 235 235 235 236 236 233 231 231 232 231 230 230 231 234 237 242 248 254 261
222 222 222 223 223 224 224 224 224 224 224 224 223 223 223 223 224 225 224 225 226 228 229 229 229 230 231 231 232 232 232 232 232 233 233 234 235 236 237 238 238 238 238 236 235 234 234 235 235 233 231 231 232 231 230 230 230 234 237 242 248 255 260
224 224 226 227 226 226 225 225 225 225 225 225 224 224 224 224 224 224 225 226 226 227 228 229 230 230 231 232 233 233 233 233 234 234 234 235 235 236 237 238 238 238 238 236 235 234 233 233 233 232 231 231 232 231 230 230 231 234 238 242 248 254 259
226 227 228 227 225 225 225 225 226 225 225 225 223 223 224 224 224 223 224 225 225 226 227 228 229 230 231 232 233 234 234 234 234 235 235 235 236 236 237 238 238 238 237 236 235 233 232 232 233 231 230 230 231 231 230 230 231 234 237 242 247 252 258
228 230 229 226 225 225 225 226 226 225 225 225 223 223 224 223 223 223 224 224 224 225 226 226 227 229 231 232 233 234 234 235 235 235 236 236 236 236 237 237 238 238 237 236 235 233 232 232 232 231 230 231 231 231 230 231 232 234 238 242 246 251 257
230 231 229 226 224 224 225 226 227 225 225 224 223 223 223 223 223 223 223 223 224 224 224 225 226 228 230 231 233 234 235 235 236 236 236 236 236 236 236 237 237 237 237 235 234 233 231 231 231 231 230 231 231 231 230 232 233 236 239 242 245 250 256
231 231 229 226 225 226 227 228 228 226 224 223 222 223 222 222 223 223 223 223 224 224 224 225 226 227 228 230 233 234 235 236 236 236 236 236 236 236 235 236 236 236 236 235 234 233 231 231 231 230 230 231 231 231 231 233 235 237 240 242 245 249 255
233 232 230 229 229 229 230 231 230 228 225 223 222 222 222 222 223 223 223 223 223 224 225 225 226 227 228 230 232 234 235 236 237 237 237 236 236 235 235 235 235 236 235 234 234 233 231 231 231 230 231 231 231 231 231 233 235 238 240 242 246 249 254
233 233 232 231 232 231 231 232 231 228 226 224 222 221 221 221 222 223 223 223 223 225 225 225 226 227 228 230 232 233 235 236 236 237 237 237 237 236 235 235 235 235 235 234 233 232 231 231 231 231 231 232 232 231 232 233 236 239 241 243 246 250 254
232 233 232 232 231 232 232 232 232 228 225 224 222 221 221 221 222 222 223 223 224 225 225 225 226 227 229 230 231 233 234 235 236 237 237 237 238 237 236 235 235 235 234 234 233 232 232 231 231 231 231 232 233 232 233 234 237 239 241 243 246 249 253
233 233 234 233 231 231 233 233 232 228 225 224 223 222 222 222 222 222 222 223 224 225 225 226 227 228 229 230 231 233 234 235 236 237 238 238 238 238 237 236 235 234 233 233 233 232 232 231 231 232 232 233 233 233 234 235 237 239 241 243 246 249 253
238 237 237 236 232 232 233 233 232 229 226 225 224 224 223 223 223 222 223 224 224 224 225 226 227 227 228 230 231 232 234 235 236 237 238 239 239 239 239 237 235 234 233 232 232 231 231 231 232 232 232 233 234 234 235 236 237 239 241 243 246 249 253
242 239 239 238 235 233 233 233 232 230 228 226 225 224 224 224 224 224 224 225 224 224 225 225 226 227 228 229 231 233 235 236 236 237 238 239 239 239 239 237 236 234 233 232 232 231 231 231 232 232 232 233 234 235 236 236 238 239 241 243 246 249 254
244 241 241 241 239 236 234 233 233 231 229 227 225 224 223 224 225 225 225 225 224 225 225 225 226 227 228 230 232 235 236 236 236 236 237 238 239 239 239 238 236 235 233 233 233 233 233 232 232 232 232 233 234 235 236 237 238 239 240 243 246 250 254
244 242 241 240 240 238 235 235 235 232 229 227 225 224 223 224 225 225 226 225 224 225 225 225 227 228 229 231 233 235 236 236 236 236 236 237 238 239 239 238 238 236 235 235 235 235 235 234 234 233 232 233 234 235 236 237 238 238 240 243 246 250 255
243 243 241 240 240 239 237 236 234 232 230 228 227 226 225 226 226 227 227 226 226 227 226 226 227 229 231 232 233 234 235 236 236 236 236 237 237 238 239 239 239 238 237 237 236 236 236 235 235 234 234 233 234 235 236 237 237 238 240 243 246 250 255
243 244 243 243 242 241 240 239 235 233 233 231 229 228 228 228 228 229 229 229 229 228 227 227 229 230 232 233 232 234 235 236 236 236 236 237 237 237 238 238 239 240 239 239 238 238 238 237 236 236 235 235 234 235 236 237 237 238 240 242 245 249 254
244 245 245 245 245 244 243 241 238 236 234 233 232 230 230 230 231 233 232 231 230 229 228 229 230 232 233 233 233 234 235 235 236 237 237 237 237 237 237 238 239 240 241 241 241 240 240 238 237 237 236 236 235 235 237 237 237 238 240 243 245 249 253
244 245 247 248 249 248 245 242 241 239 235 233 232 231 231 231 232 233 232 231 230 230 230 231 231 232 233 234 234 234 235 235 236 237 237 237 237 237 237 238 239 240 241 243 243 243 242 240 239 238 237 237 236 236 237 237 237 238 240 243 245 249 253
245 247 248 249 251 250 247 243 241 240 237 234 232 232 232 232 231 230 230 230 231 231 231 231 232 233 234 234 234 234 234 235 236 236 237 237 238 238 238 239 239 240 241 243 244 245 244 242 241 240 238 238 237 237 237 238 238 238 240 243 246 249 253
245 247 248 248 250 250 249 244 240 239 237 235 233 233 233 233 231 229 229 230 231 232 231 232 233 234 234 235 234 234 235 236 236 237 237 238 239 240 240 240 240 241 241 242 244 245 245 244 243 242 240 239 238 238 238 238 238 239 240 243 246 249 253
243 245 247 247 248 249 249 245 241 238 236 235 235 235 234 233 231 230 229 230 232 233 233 234 235 235 235 235 235 235 235 235 236 238 239 240 241 242 242 242 242 242 242 242 243 245 245 245 244 243 242 240 239 239 239 239 239 239 241 243 246 249 252
242 243 244 245 246 247 246 244 242 238 236 236 236 235 234 234 232 231 232 233 233 234 235 236 236 235 234 235 235 236 236 237 238 240 242 244 244 245 244 244 244 243 242 243 244 244 245 245 245 244 243 242 241 240 240 240 241 240 242 244 245 248 252
243 243 243 243 245 245 244 241 240 238 238 239 237 235 235 235 235 234 235 236 235 236 238 238 236 235 235 235 236 237 238 239 241 243 244 245 246 247 246 245 244 243 242 243 244 244 244 245 245 245 244 243 242 241 241 241 242 241 242 244 245 247 250
242 241 241 241 242 242 240 239 239 240 242 243 240 236 236 236 237 238 238 237 238 240 241 239 237 236 236 237 238 238 239 241 243 245 246 247 247 247 247 245 244 243 243 243 243 243 243 244 245 245 245 244 243 243 242 242 242 242 243 244 245 247 249
238 239 240 239 238 236 235 237 240 242 245 246 244 241 238 238 239 240 240 240 242 243 241 239 238 238 239 240 240 241 242 244 245 247 247 247 247 246 247 247 246 245 244 243 243 242 243 243 244 245 245 245 244 244 243 243 242 242 243 243 244 245 247
237 238 239 239 238 237 237 238 241 244 246 247 247 246 243 241 240 240 241 243 243 242 239 238 239 240 241 242 243 244 245 246 246 247 247 246 246 246 247 248 249 247 246 245 244 243 243 243 244 244 245 245 244 244 243 243 242 242 242 243 243 244 246
238 239 240 241 241 241 241 241 242 245 246 247 248 247 246 245 244 243 244 246 246 243 240 240 241 241 242 244 245 246 247 248 248 248 248 247 246 246 247 248 248 249 248 247 246 244 244 244 244 244 245 245 244 244 243 243 243 242 242 242 243 244 244
237 237 238 240 241 242 243 243 244 245 246 248 249 248 248 248 247 246 248 249 249 247 245 244 244 245 246 247 247 248 249 249 250 250 250 249 248 248 248 247 248 249 249 248 248 247 246 246 245 244 244 244 244 244 243 243 243 242 241 241 241 242 242
237 237 238 239 242 244 244 244 246 246 247 249 251 250 250 250 249 249 250 251 251 250 250 249 249 249 250 250 250 250 250 250 251 251 251 251 250 250 250 249 248 249 249 248 249 249 249 248 246 245 244 245 245 244 243 242 242 242 241 240 240 240 240
239 240 241 242 244 245 245 246 248 249 250 252 253 253 253 253 252 253 254 254 254 254 254 253 252 252 252 252 252 252 251 251 252 252 252 252 252 252 252 251 250 250 249 249 249 250 250 249 248 247 246 245 245 244 243 242 241 240 239 238 237 237 237
240 241 242 243 244 247 248 250 252 253 253 254 255 256 256 256 256 258 258 259 258 258 257 257 256 256 255 255 254 254 254 254 254 254 255 254 254 253 253 252 251 251 250 250 249 249 249 249 248 248 247 245 244 243 242 241 239 237 236 235 234 234 235
241 243 244 244 245 247 250 253 255 256 257 257 258 258 258 258 259 259 260 262 262 262 261 261 260 259 259 258 258 258 258 258 258 258 258 258 257 256 255 254 253 252 251 251 250 249 249 248 248 247 246 245 243 240 238 237 236 235 234 233 231 232 232
242 244 246 247 248 249 253 255 256 256 257 258 259 260 260 260 260 261 262 263 263 264 264 263 263 262 261 261 261 261 261 262 262 262 261 261 260 259 258 257 256 255 254 253 251 250 249 248 247 246 245 245 243 240 237 236 234 232 231 230 229 229 229
241 244 246 249 250 252 255 258 257 257 257 258 259 259 260 261 262 262 264 264 265 265 265 265 264 264 263 263 263 263 263 264 265 265 265 264 264 263 261 259 257 257 256 255 252 250 249 247 246 245 244 244 243 240 237 235 233 231 229 228 227 226 226
240 243 245 248 251 253 256 258 258 258 259 259 259 260 260 262 263 264 265 267 267 267 267 267 266 266 266 267 266 266 266 266 267 268 268 268 267 266 264 263 260 259 258 256 253 251 248 246 245 244 242 242 241 238 234 232 231 230 228 227 225 224 224